Location: *
(48.7358°N, 0.3111°E)
Time: 15:28:46
(UTC+00:00)

Cosmos 2278 Rocket - Pass Details

Date: 22 October 2019
Orbit: 840 x 847 km, 71.0° (Epoch: 12 November)

Event Time Altitude Azimuth Distance (km) Brightness Sun altitude
Exits shadow 03:40:08 18° 166° (SSE) 1,966 4.0 -28.3°
Drops below altitude 10° 03:41:28 10° 164° (SSE) 2,460 4.6 -28.1°
Sets 03:43:54 0° 162° (SSE) 3,390 5.4 -27.7°
